Time,TemperatureF,DewpointF,PressureIn,WindDirection,WindDirectionDegrees,WindSpeedMPH,WindSpeedGustMPH,Humidity,HourlyPrecipIn,Conditions,Clouds,dailyrainin,SoftwareType,DateUTC
2013-03-12 00:02:00,31.0,27.0,29.70,WSW,249,3.0,-999.0,86,-99.99,,,-99.99,,2013-03-12 05:02:00,
2013-03-12 00:12:00,31.0,27.0,29.70,WSW,249,3.0,-999.0,86,-99.99,,,-99.99,,2013-03-12 05:12:00,
2013-03-12 00:22:00,31.0,27.0,29.70,SE,138,2.0,-999.0,85,-99.99,,,-99.99,,2013-03-12 05:22:00,
2013-03-12 00:32:00,30.0,26.0,29.70,West,275,2.0,-999.0,84,-99.99,,,-99.99,,2013-03-12 05:32:00,
2013-03-12 00:42:00,30.0,26.0,29.70,West,275,2.0,-999.0,84,-99.99,,,-99.99,,2013-03-12 05:42:00,
2013-03-12 00:52:00,30.0,26.0,29.71,West,259,2.0,-999.0,85,-99.99,,,-99.99,,2013-03-12 05:52:00,
2013-03-12 01:02:00,30.0,26.0,29.71,South,180,3.0,-999.0,85,-99.99,,,-99.99,,2013-03-12 06:02:00,
2013-03-12 01:12:00,30.0,26.0,29.71,South,180,3.0,-999.0,85,-99.99,,,-99.99,,2013-03-12 06:12:00,
2013-03-12 01:22:00,30.0,26.0,29.70,West,270,2.0,-999.0,85,-99.99,,,-99.99,,2013-03-12 06:22:00,
2013-03-12 01:32:00,30.0,26.0,29.71,West,265,1.0,-999.0,85,-99.99,,,-99.99,,2013-03-12 06:32:00,
2013-03-12 01:42:00,30.0,26.0,29.71,West,265,1.0,-999.0,85,-99.99,,,-99.99,,2013-03-12 06:42:00,
2013-03-12 01:52:00,30.0,26.0,29.71,West,260,2.0,-999.0,85,-99.99,,,-99.99,,2013-03-12 06:52:00,
2013-03-12 02:02:00,30.0,26.0,29.72,WSW,250,2.0,-999.0,86,-99.99,,,-99.99,,2013-03-12 07:02:00,
2013-03-12 02:12:00,30.0,26.0,29.72,WSW,250,2.0,-999.0,86,-99.99,,,-99.99,,2013-03-12 07:12:00,
2013-03-12 02:22:00,30.0,25.0,29.73,SW,223,3.0,-999.0,80,-99.99,,,-99.99,,2013-03-12 07:22:00,
2013-03-12 02:32:00,30.0,24.0,29.73,WSW,248,2.0,-999.0,79,-99.99,,,-99.99,,2013-03-12 07:32:00,
2013-03-12 02:42:00,30.0,24.0,29.73,WSW,248,2.0,-999.0,79,-99.99,,,-99.99,,2013-03-12 07:42:00,
2013-03-12 02:52:00,30.0,24.0,29.73,West,263,2.0,-999.0,79,-99.99,,,-99.99,,2013-03-12 07:52:00,
2013-03-12 03:02:00,30.0,24.0,29.73,West,263,1.0,-999.0,79,-99.99,,,-99.99,,2013-03-12 08:02:00,
2013-03-12 03:12:00,30.0,24.0,29.73,West,263,1.0,-999.0,79,-99.99,,,-99.99,,2013-03-12 08:12:00,
2013-03-12 03:22:00,29.0,23.0,29.73,West,276,2.0,-999.0,79,-99.99,,,-99.99,,2013-03-12 08:22:00,
2013-03-12 03:42:00,29.0,23.0,29.73,SW,236,2.0,-999.0,78,-99.99,,,-99.99,,2013-03-12 08:42:00,
2013-03-12 03:52:00,29.0,23.0,29.73,WSW,250,1.0,-999.0,79,-99.99,,,-99.99,,2013-03-12 08:52:00,
2013-03-12 04:03:00,29.0,24.0,29.73,West,273,2.0,-999.0,80,-99.99,,,-99.99,,2013-03-12 09:03:00,
2013-03-12 04:12:00,29.0,24.0,29.73,West,273,2.0,-999.0,80,-99.99,,,-99.99,,2013-03-12 09:12:00,
2013-03-12 04:22:00,28.0,23.0,29.73,WNW,284,1.0,-999.0,80,-99.99,,,-99.99,,2013-03-12 09:22:00,
2013-03-12 04:32:00,28.0,23.0,29.73,WSW,244,2.0,-999.0,80,-99.99,,,-99.99,,2013-03-12 09:32:00,
2013-03-12 04:42:00,28.0,23.0,29.73,WSW,244,2.0,-999.0,80,-99.99,,,-99.99,,2013-03-12 09:42:00,
2013-03-12 04:52:00,28.0,23.0,29.73,SW,227,2.0,-999.0,81,-99.99,,,-99.99,,2013-03-12 09:52:00,
2013-03-12 05:02:00,28.0,23.0,29.73,West,271,2.0,-999.0,82,-99.99,,,-99.99,,2013-03-12 10:02:00,
2013-03-12 05:12:00,28.0,23.0,29.73,West,271,2.0,-999.0,82,-99.99,,,-99.99,,2013-03-12 10:12:00,
2013-03-12 05:22:00,27.0,23.0,29.74,SW,231,1.0,-999.0,83,-99.99,,,-99.99,,2013-03-12 10:22:00,
2013-03-12 05:32:00,27.0,23.0,29.75,SW,220,1.0,-999.0,85,-99.99,,,-99.99,,2013-03-12 10:32:00,
2013-03-12 05:42:00,27.0,23.0,29.75,SW,220,1.0,-999.0,85,-99.99,,,-99.99,,2013-03-12 10:42:00,
2013-03-12 05:52:00,27.0,23.0,29.76,WSW,252,1.0,-999.0,85,-99.99,,,-99.99,,2013-03-12 10:52:00,
2013-03-12 06:02:00,27.0,23.0,29.77,WSW,254,3.0,-999.0,85,-99.99,,,-99.99,,2013-03-12 11:02:00,
2013-03-12 06:12:00,27.0,23.0,29.77,WSW,254,3.0,-999.0,85,-99.99,,,-99.99,,2013-03-12 11:12:00,
2013-03-12 06:22:00,26.0,22.0,29.77,WSW,240,1.0,-999.0,86,-99.99,,,-99.99,,2013-03-12 11:22:00,
2013-03-12 06:32:00,26.0,22.0,29.77,WSW,255,1.0,-999.0,86,-99.99,,,-99.99,,2013-03-12 11:32:00,
2013-03-12 06:42:00,26.0,22.0,29.77,WSW,255,1.0,-999.0,86,-99.99,,,-99.99,,2013-03-12 11:42:00,
2013-03-12 06:52:00,26.0,22.0,29.77,WSW,245,2.0,-999.0,86,-99.99,,,-99.99,,2013-03-12 11:52:00,
2013-03-12 07:02:00,26.0,22.0,29.78,WSW,241,1.0,-999.0,86,-99.99,,,-99.99,,2013-03-12 12:02:00,
2013-03-12 07:12:00,26.0,22.0,29.78,WSW,241,1.0,-999.0,86,-99.99,,,-99.99,,2013-03-12 12:12:00,
2013-03-12 07:22:00,26.0,22.0,29.78,SW,214,1.0,-999.0,86,-99.99,,,-99.99,,2013-03-12 12:22:00,
2013-03-12 07:32:00,26.0,23.0,29.78,SW,215,1.0,-999.0,87,-99.99,,,-99.99,,2013-03-12 12:32:00,
2013-03-12 07:42:00,26.0,23.0,29.78,SW,215,1.0,-999.0,87,-99.99,,,-99.99,,2013-03-12 12:42:00,
2013-03-12 07:52:00,26.0,23.0,29.78,WSW,242,2.0,-999.0,87,-99.99,,,-99.99,,2013-03-12 12:52:00,
2013-03-12 08:02:00,26.0,23.0,29.78,West,261,2.0,-999.0,87,-99.99,,,-99.99,,2013-03-12 13:02:00,
2013-03-12 08:12:00,26.0,23.0,29.78,West,261,2.0,-999.0,87,-99.99,,,-99.99,,2013-03-12 13:12:00,
2013-03-12 08:22:00,26.0,23.0,29.78,WSW,257,2.0,-999.0,87,-99.99,,,-99.99,,2013-03-12 13:22:00,
2013-03-12 08:32:00,27.0,24.0,29.78,WSW,253,2.0,-999.0,87,-99.99,,,-99.99,,2013-03-12 13:32:00,
2013-03-12 08:42:00,27.0,24.0,29.78,WSW,253,2.0,-999.0,87,-99.99,,,-99.99,,2013-03-12 13:42:00,
2013-03-12 08:52:00,27.0,24.0,29.80,SW,226,3.0,-999.0,87,-99.99,,,-99.99,,2013-03-12 13:52:00,
2013-03-12 09:02:00,28.0,24.0,29.80,SW,221,3.0,-999.0,86,-99.99,,,-99.99,,2013-03-12 14:02:00,
2013-03-12 09:12:00,28.0,24.0,29.80,SW,221,3.0,-999.0,86,-99.99,,,-99.99,,2013-03-12 14:12:00,
2013-03-12 09:22:00,28.0,24.0,29.80,SW,217,2.0,-999.0,86,-99.99,,,-99.99,,2013-03-12 14:22:00,
2013-03-12 09:32:00,28.0,24.0,29.81,West,263,4.0,-999.0,85,-99.99,,,-99.99,,2013-03-12 14:32:00,
2013-03-12 09:42:00,28.0,24.0,29.81,West,263,4.0,-999.0,85,-99.99,,,-99.99,,2013-03-12 14:42:00,
2013-03-12 09:53:00,28.0,24.0,29.81,West,271,5.0,-999.0,85,-99.99,,,-99.99,,2013-03-12 14:53:00,
2013-03-12 10:02:00,29.0,25.0,29.81,SSE,152,4.0,-999.0,84,-99.99,,,-99.99,,2013-03-12 15:02:00,
2013-03-12 10:12:00,29.0,25.0,29.81,SSE,152,4.0,-999.0,84,-99.99,,,-99.99,,2013-03-12 15:12:00,
2013-03-12 10:22:00,30.0,25.0,29.81,West,260,4.0,-999.0,83,-99.99,,,-99.99,,2013-03-12 15:22:00,
2013-03-12 10:32:00,30.0,25.0,29.81,SW,228,5.0,-999.0,83,-99.99,,,-99.99,,2013-03-12 15:32:00,
2013-03-12 10:42:00,30.0,25.0,29.81,SW,228,5.0,-999.0,83,-99.99,,,-99.99,,2013-03-12 15:42:00,
2013-03-12 10:53:00,31.0,26.0,29.81,WSW,250,3.0,-999.0,83,-99.99,,,-99.99,,2013-03-12 15:53:00,
2013-03-12 11:02:00,32.0,26.0,29.81,WSW,238,5.0,-999.0,78,-99.99,,,-99.99,,2013-03-12 16:02:00,
2013-03-12 11:12:00,32.0,26.0,29.81,WSW,238,5.0,-999.0,78,-99.99,,,-99.99,,2013-03-12 16:12:00,
2013-03-12 11:22:00,33.0,27.0,29.81,SW,236,4.0,-999.0,79,-99.99,,,-99.99,,2013-03-12 16:22:00,
2013-03-12 11:33:00,34.0,28.0,29.81,West,263,3.0,-999.0,78,-99.99,,,-99.99,,2013-03-12 16:33:00,
2013-03-12 11:42:00,34.0,28.0,29.81,West,263,3.0,-999.0,78,-99.99,,,-99.99,,2013-03-12 16:42:00,
2013-03-12 11:53:00,35.0,27.0,29.81,WSW,252,4.0,-999.0,73,-99.99,,,-99.99,,2013-03-12 16:53:00,
2013-03-12 12:02:00,35.0,28.0,29.82,WSW,248,3.0,-999.0,74,-99.99,,,-99.99,,2013-03-12 17:02:00,
2013-03-12 12:12:00,35.0,28.0,29.82,WSW,248,3.0,-999.0,74,-99.99,,,-99.99,,2013-03-12 17:12:00,
2013-03-12 12:22:00,36.0,28.0,29.81,WSW,244,3.0,-999.0,73,-99.99,,,-99.99,,2013-03-12 17:22:00,
2013-03-12 12:33:00,37.0,29.0,29.82,West,261,2.0,-999.0,72,-99.99,,,-99.99,,2013-03-12 17:33:00,
2013-03-12 12:43:00,37.0,29.0,29.82,West,261,2.0,-999.0,72,-99.99,,,-99.99,,2013-03-12 17:43:00,
2013-03-12 12:53:00,37.0,28.0,29.82,WSW,254,1.0,-999.0,70,-99.99,,,-99.99,,2013-03-12 17:53:00,
2013-03-12 13:02:00,37.0,28.0,29.82,WSW,254,1.0,-999.0,70,-99.99,,,-99.99,,2013-03-12 18:02:00,
2013-03-12 13:13:00,38.0,28.0,29.81,WNW,288,3.0,-999.0,68,-99.99,,,-99.99,,2013-03-12 18:13:00,
2013-03-12 13:22:00,38.0,28.0,29.81,WNW,288,3.0,-999.0,68,-99.99,,,-99.99,,2013-03-12 18:22:00,
2013-03-12 13:33:00,38.0,28.0,29.80,West,271,4.0,-999.0,68,-99.99,,,-99.99,,2013-03-12 18:33:00,
2013-03-12 13:43:00,38.0,28.0,29.80,West,271,4.0,-999.0,68,-99.99,,,-99.99,,2013-03-12 18:43:00,
2013-03-12 13:53:00,39.0,29.0,29.80,SW,218,3.0,-999.0,67,-99.99,,,-99.99,,2013-03-12 18:53:00,
2013-03-12 14:03:00,39.0,29.0,29.80,SSW,203,3.0,-999.0,66,-99.99,,,-99.99,,2013-03-12 19:03:00,
2013-03-12 14:13:00,39.0,29.0,29.80,SSW,203,3.0,-999.0,66,-99.99,,,-99.99,,2013-03-12 19:13:00,
2013-03-12 14:22:00,39.0,29.0,29.80,West,272,4.0,-999.0,68,-99.99,,,-99.99,,2013-03-12 19:22:00,
2013-03-12 14:33:00,39.0,30.0,29.80,SW,225,6.0,-999.0,70,-99.99,,,-99.99,,2013-03-12 19:33:00,
2013-03-12 14:43:00,39.0,30.0,29.80,SW,225,6.0,-999.0,70,-99.99,,,-99.99,,2013-03-12 19:43:00,
2013-03-12 14:53:00,38.0,30.0,29.79,SW,236,4.0,-999.0,72,-99.99,,,-99.99,,2013-03-12 19:53:00,
2013-03-12 15:02:00,36.0,31.0,29.80,West,262,6.0,-999.0,82,-99.99,,,-99.99,,2013-03-12 20:02:00,
2013-03-12 15:12:00,36.0,31.0,29.80,West,262,6.0,-999.0,82,-99.99,,,-99.99,,2013-03-12 20:12:00,
2013-03-12 15:22:00,35.0,32.0,29.80,West,270,5.0,-999.0,88,-99.99,,,-99.99,,2013-03-12 20:22:00,
2013-03-12 15:32:00,35.0,31.0,29.80,WSW,256,6.0,-999.0,86,-99.99,,,-99.99,,2013-03-12 20:32:00,
2013-03-12 15:42:00,35.0,31.0,29.80,WSW,256,6.0,-999.0,86,-99.99,,,-99.99,,2013-03-12 20:42:00,
2013-03-12 15:53:00,35.0,32.0,29.80,West,278,5.0,-999.0,89,-99.99,,,-99.99,,2013-03-12 20:53:00,
2013-03-12 16:02:00,36.0,32.0,29.80,West,270,6.0,-999.0,86,-99.99,,,-99.99,,2013-03-12 21:02:00,
2013-03-12 16:12:00,36.0,32.0,29.80,West,270,6.0,-999.0,86,-99.99,,,-99.99,,2013-03-12 21:12:00,
2013-03-12 16:22:00,36.0,30.0,29.80,NW,307,4.0,-999.0,80,-99.99,,,-99.99,,2013-03-12 21:22:00,
2013-03-12 16:32:00,37.0,31.0,29.80,West,268,6.0,-999.0,78,-99.99,,,-99.99,,2013-03-12 21:32:00,
2013-03-12 16:43:00,37.0,31.0,29.80,West,268,6.0,-999.0,78,-99.99,,,-99.99,,2013-03-12 21:43:00,
2013-03-12 16:52:00,37.0,30.0,29.80,West,265,3.0,-999.0,77,-99.99,,,-99.99,,2013-03-12 21:52:00,
2013-03-12 17:02:00,36.0,29.0,29.80,West,275,3.0,-999.0,75,-99.99,,,-99.99,,2013-03-12 22:02:00,
2013-03-12 17:12:00,36.0,29.0,29.80,West,275,3.0,-999.0,75,-99.99,,,-99.99,,2013-03-12 22:12:00,
2013-03-12 17:22:00,36.0,29.0,29.81,SSW,196,3.0,-999.0,75,-99.99,,,-99.99,,2013-03-12 22:22:00,
2013-03-12 17:33:00,37.0,28.0,29.81,SSW,212,3.0,-999.0,69,-99.99,,,-99.99,,2013-03-12 22:33:00,
2013-03-12 17:42:00,37.0,28.0,29.81,SSW,212,3.0,-999.0,69,-99.99,,,-99.99,,2013-03-12 22:42:00,
2013-03-12 17:53:00,37.0,28.0,29.81,SE,141,4.0,-999.0,70,-99.99,,,-99.99,,2013-03-12 22:53:00,
2013-03-12 18:02:00,36.0,28.0,29.81,West,273,3.0,-999.0,72,-99.99,,,-99.99,,2013-03-12 23:02:00,
2013-03-12 18:12:00,36.0,28.0,29.81,West,273,3.0,-999.0,72,-99.99,,,-99.99,,2013-03-12 23:12:00,
2013-03-12 18:22:00,34.0,28.0,29.82,East,84,3.0,-999.0,80,-99.99,,,-99.99,,2013-03-12 23:22:00,
2013-03-12 18:34:00,34.0,29.0,29.82,WNW,287,1.0,-999.0,82,-99.99,,,-99.99,,2013-03-12 23:34:00,
2013-03-12 18:43:00,34.0,29.0,29.82,WNW,287,1.0,-999.0,82,-99.99,,,-99.99,,2013-03-12 23:43:00,
2013-03-12 18:52:00,34.0,30.0,29.83,WSW,257,2.0,-999.0,86,-99.99,,,-99.99,,2013-03-12 23:52:00,
2013-03-12 19:02:00,32.0,30.0,29.83,WSW,248,2.0,-999.0,91,-99.99,,,-99.99,,2013-03-13 00:02:00,
2013-03-12 19:12:00,32.0,30.0,29.83,WSW,248,2.0,-999.0,91,-99.99,,,-99.99,,2013-03-13 00:12:00,
2013-03-12 19:23:00,32.0,29.0,29.83,WSW,250,2.0,-999.0,89,-99.99,,,-99.99,,2013-03-13 00:23:00,
2013-03-12 19:33:00,32.0,29.0,29.84,SSE,156,3.0,-999.0,88,-99.99,,,-99.99,,2013-03-13 00:33:00,
2013-03-12 19:42:00,32.0,29.0,29.84,SSE,156,3.0,-999.0,88,-99.99,,,-99.99,,2013-03-13 00:42:00,
2013-03-12 19:53:00,32.0,29.0,29.84,SW,222,5.0,-999.0,87,-99.99,,,-99.99,,2013-03-13 00:53:00,
2013-03-12 20:02:00,32.0,28.0,29.85,West,271,2.0,-999.0,86,-99.99,,,-99.99,,2013-03-13 01:02:00,
2013-03-12 20:12:00,32.0,28.0,29.85,West,271,2.0,-999.0,86,-99.99,,,-99.99,,2013-03-13 01:12:00,
2013-03-12 20:22:00,32.0,29.0,29.85,WSW,250,2.0,-999.0,87,-99.99,,,-99.99,,2013-03-13 01:22:00,
2013-03-12 20:32:00,31.0,28.0,29.86,ESE,107,2.0,-999.0,89,-99.99,,,-99.99,,2013-03-13 01:32:00,
2013-03-12 20:42:00,31.0,28.0,29.86,ESE,107,2.0,-999.0,89,-99.99,,,-99.99,,2013-03-13 01:42:00,
2013-03-12 20:53:00,31.0,28.0,29.86,West,261,1.0,-999.0,89,-99.99,,,-99.99,,2013-03-13 01:53:00,
2013-03-12 21:02:00,30.0,27.0,29.87,ENE,69,2.0,-999.0,87,-99.99,,,-99.99,,2013-03-13 02:02:00,
2013-03-12 21:12:00,30.0,27.0,29.87,ENE,69,2.0,-999.0,87,-99.99,,,-99.99,,2013-03-13 02:12:00,
2013-03-12 21:22:00,30.0,25.0,29.88,NNW,329,1.0,-999.0,83,-99.99,,,-99.99,,2013-03-13 02:22:00,
2013-03-12 21:32:00,29.0,23.0,29.89,NNW,344,2.0,-999.0,78,-99.99,,,-99.99,,2013-03-13 02:32:00,
2013-03-12 21:42:00,29.0,23.0,29.89,NNW,344,2.0,-999.0,78,-99.99,,,-99.99,,2013-03-13 02:42:00,
2013-03-12 21:52:00,29.0,22.0,29.89,West,269,2.0,-999.0,75,-99.99,,,-99.99,,2013-03-13 02:52:00,
2013-03-12 22:02:00,28.0,21.0,29.89,West,275,2.0,-999.0,74,-99.99,,,-99.99,,2013-03-13 03:02:00,
2013-03-12 22:12:00,28.0,21.0,29.89,West,275,2.0,-999.0,74,-99.99,,,-99.99,,2013-03-13 03:12:00,
2013-03-12 22:22:00,28.0,21.0,29.90,SE,145,1.0,-999.0,75,-99.99,,,-99.99,,2013-03-13 03:22:00,
2013-03-12 22:32:00,28.0,22.0,29.91,SSW,210,1.0,-999.0,78,-99.99,,,-99.99,,2013-03-13 03:32:00,
2013-03-12 22:42:00,28.0,22.0,29.91,SSW,210,1.0,-999.0,78,-99.99,,,-99.99,,2013-03-13 03:42:00,
2013-03-12 22:53:00,28.0,21.0,29.91,ENE,61,1.0,-999.0,76,-99.99,,,-99.99,,2013-03-13 03:53:00,
2013-03-12 23:02:00,27.0,21.0,29.91,West,270,1.0,-999.0,77,-99.99,,,-99.99,,2013-03-13 04:02:00,
2013-03-12 23:13:00,27.0,21.0,29.91,West,270,1.0,-999.0,77,-99.99,,,-99.99,,2013-03-13 04:13:00,
2013-03-12 23:22:00,27.0,21.0,29.91,SW,222,2.0,-999.0,79,-99.99,,,-99.99,,2013-03-13 04:22:00,
2013-03-12 23:32:00,27.0,21.0,29.91,WSW,250,2.0,-999.0,79,-99.99,,,-99.99,,2013-03-13 04:32:00,
2013-03-12 23:42:00,27.0,21.0,29.91,WSW,250,2.0,-999.0,79,-99.99,,,-99.99,,2013-03-13 04:42:00,
2013-03-12 23:53:00,26.0,20.0,29.92,West,281,2.0,-999.0,77,-99.99,,,-99.99,,2013-03-13 04:53:00,